Time,TemperatureF,DewpointF,PressureIn,WindDirection,WindDirectionDegrees,WindSpeedMPH,WindSpeedGustMPH,Humidity,HourlyPrecipIn,Conditions,Clouds,dailyrainin,SoftwareType,DateUTC
2013-08-23 00:03:00,65.8,62.1,27.20,North,-999,-999.0,-999.0,88,0.00,,,0.00,WSDL version 420,2013-08-23 04:03:00,
2013-08-23 00:08:00,65.8,62.0,27.20,North,-999,-999.0,-999.0,88,0.00,,,0.00,WSDL version 420,2013-08-23 04:08:00,
2013-08-23 00:13:00,65.7,62.0,27.20,North,-999,-999.0,-999.0,88,0.00,,,0.00,WSDL version 420,2013-08-23 04:13:00,
2013-08-23 00:18:00,65.6,61.8,27.20,North,-999,-999.0,-999.0,87,0.00,,,0.00,WSDL version 420,2013-08-23 04:18:00,
2013-08-23 00:23:00,65.6,61.5,27.20,North,-999,-999.0,-999.0,87,0.00,,,0.00,WSDL version 420,2013-08-23 04:23:00,
2013-08-23 00:28:00,65.4,61.3,27.23,North,-999,-999.0,-999.0,87,0.00,,,0.00,WSDL version 420,2013-08-23 04:28:00,
2013-08-23 00:33:00,65.3,61.4,27.23,North,-999,-999.0,-999.0,88,0.00,,,0.00,WSDL version 420,2013-08-23 04:33:00,
2013-08-23 00:38:00,65.2,61.5,27.23,North,-999,-999.0,-999.0,88,0.00,,,0.00,WSDL version 420,2013-08-23 04:38:00,
2013-08-23 00:43:00,65.2,61.5,27.20,North,-999,-999.0,-999.0,88,0.00,,,0.00,WSDL version 420,2013-08-23 04:43:00,
2013-08-23 00:48:00,65.1,61.4,27.20,North,-999,-999.0,-999.0,88,0.00,,,0.00,WSDL version 420,2013-08-23 04:48:00,
2013-08-23 00:53:00,65.0,61.3,27.20,North,-999,-999.0,-999.0,88,0.00,,,0.00,WSDL version 420,2013-08-23 04:53:00,
2013-08-23 00:58:00,65.0,61.3,27.23,North,-999,-999.0,-999.0,88,0.00,,,0.00,WSDL version 420,2013-08-23 04:58:00,
2013-08-23 01:03:00,64.9,61.4,27.23,North,-999,-999.0,-999.0,89,0.00,,,0.00,WSDL version 420,2013-08-23 05:03:00,
2013-08-23 01:08:00,65.0,61.7,27.23,North,-999,-999.0,-999.0,89,0.00,,,0.00,WSDL version 420,2013-08-23 05:08:00,
2013-08-23 01:13:00,65.0,61.7,27.20,North,-999,-999.0,-999.0,89,0.00,,,0.00,WSDL version 420,2013-08-23 05:13:00,
2013-08-23 01:18:00,65.0,61.7,27.20,North,-999,-999.0,-999.0,89,0.00,,,0.00,WSDL version 420,2013-08-23 05:18:00,
2013-08-23 01:23:00,64.9,61.5,27.20,North,-999,-999.0,-999.0,89,0.00,,,0.00,WSDL version 420,2013-08-23 05:23:00,
2013-08-23 01:28:00,64.9,61.7,27.20,North,-999,-999.0,-999.0,90,0.00,,,0.00,WSDL version 420,2013-08-23 05:28:00,
2013-08-23 01:33:00,65.0,62.0,27.20,North,-999,-999.0,-999.0,90,0.00,,,0.00,WSDL version 420,2013-08-23 05:33:00,
2013-08-23 01:38:00,65.0,61.9,27.20,North,-999,-999.0,-999.0,90,0.00,,,0.00,WSDL version 420,2013-08-23 05:38:00,
2013-08-23 01:43:00,64.9,61.9,27.20,North,-999,-999.0,-999.0,90,0.00,,,0.00,WSDL version 420,2013-08-23 05:43:00,
2013-08-23 01:48:00,64.9,61.9,27.20,North,-999,-999.0,-999.0,90,0.00,,,0.00,WSDL version 420,2013-08-23 05:48:00,
2013-08-23 01:53:00,64.9,61.9,27.20,North,-999,-999.0,-999.0,90,0.00,,,0.00,WSDL version 420,2013-08-23 05:53:00,
2013-08-23 01:58:00,64.8,61.8,27.20,North,-999,-999.0,-999.0,90,0.00,,,0.00,WSDL version 420,2013-08-23 05:58:00,
2013-08-23 02:03:00,64.7,61.7,27.20,North,-999,-999.0,-999.0,90,0.00,,,0.00,WSDL version 420,2013-08-23 06:03:00,
2013-08-23 02:08:00,64.7,61.7,27.20,North,-999,-999.0,-999.0,90,0.00,,,0.00,WSDL version 420,2013-08-23 06:08:00,
2013-08-23 02:13:00,64.7,61.7,27.20,North,-999,-999.0,-999.0,90,0.00,,,0.00,WSDL version 420,2013-08-23 06:13:00,
2013-08-23 02:18:00,64.7,61.7,27.20,North,-999,-999.0,-999.0,90,0.00,,,0.00,WSDL version 420,2013-08-23 06:18:00,
2013-08-23 02:23:00,64.6,61.6,27.20,North,-999,-999.0,-999.0,90,0.00,,,0.00,WSDL version 420,2013-08-23 06:23:00,
2013-08-23 02:28:00,64.5,61.5,27.17,North,-999,-999.0,-999.0,90,0.00,,,0.00,WSDL version 420,2013-08-23 06:28:00,
2013-08-23 02:33:00,64.5,61.5,27.17,North,-999,-999.0,-999.0,90,0.00,,,0.00,WSDL version 420,2013-08-23 06:33:00,
2013-08-23 02:38:00,64.5,61.5,27.17,North,-999,-999.0,-999.0,90,0.00,,,0.00,WSDL version 420,2013-08-23 06:38:00,
2013-08-23 02:43:00,64.3,61.7,27.17,North,-999,-999.0,-999.0,91,0.00,,,0.00,WSDL version 420,2013-08-23 06:43:00,
2013-08-23 02:48:00,64.3,61.7,27.17,North,-999,-999.0,-999.0,91,0.00,,,0.00,WSDL version 420,2013-08-23 06:48:00,
2013-08-23 02:53:00,64.3,61.7,27.17,North,-999,-999.0,-999.0,91,0.00,,,0.00,WSDL version 420,2013-08-23 06:53:00,
2013-08-23 02:58:00,64.3,61.9,27.17,North,-999,-999.0,-999.0,92,0.00,,,0.00,WSDL version 420,2013-08-23 06:58:00,
2013-08-23 03:03:00,64.3,61.8,27.17,North,-999,-999.0,-999.0,91,0.00,,,0.00,WSDL version 420,2013-08-23 07:03:00,
2013-08-23 03:08:00,64.3,61.7,27.17,North,-999,-999.0,-999.0,91,0.00,,,0.00,WSDL version 420,2013-08-23 07:08:00,
2013-08-23 03:13:00,64.2,61.5,27.17,North,-999,-999.0,-999.0,91,0.00,,,0.00,WSDL version 420,2013-08-23 07:13:00,
2013-08-23 03:18:00,64.1,61.5,27.17,North,-999,-999.0,-999.0,91,0.00,,,0.00,WSDL version 420,2013-08-23 07:18:00,
2013-08-23 03:23:00,64.1,61.8,27.17,North,-999,-999.0,-999.0,92,0.00,,,0.00,WSDL version 420,2013-08-23 07:23:00,
2013-08-23 03:28:00,64.1,61.8,27.17,North,-999,-999.0,-999.0,92,0.00,,,0.00,WSDL version 420,2013-08-23 07:28:00,
2013-08-23 03:33:00,64.1,61.5,27.17,North,-999,-999.0,-999.0,91,0.00,,,0.00,WSDL version 420,2013-08-23 07:33:00,
2013-08-23 03:38:00,64.0,61.4,27.17,North,-999,-999.0,-999.0,92,0.00,,,0.00,WSDL version 420,2013-08-23 07:38:00,
2013-08-23 03:43:00,64.0,61.7,27.17,North,-999,-999.0,-999.0,92,0.00,,,0.00,WSDL version 420,2013-08-23 07:43:00,
2013-08-23 03:48:00,64.0,61.7,27.17,North,-999,-999.0,-999.0,92,0.00,,,0.00,WSDL version 420,2013-08-23 07:48:00,
2013-08-23 03:53:00,64.0,61.7,27.17,North,-999,-999.0,-999.0,92,0.00,,,0.00,WSDL version 420,2013-08-23 07:53:00,
2013-08-23 03:58:00,64.0,61.7,27.17,North,-999,-999.0,-999.0,92,0.00,,,0.00,WSDL version 420,2013-08-23 07:58:00,
2013-08-23 04:03:00,64.0,61.7,27.17,North,-999,-999.0,-999.0,92,0.00,,,0.00,WSDL version 420,2013-08-23 08:03:00,
2013-08-23 04:08:00,64.1,62.0,27.17,North,-999,-999.0,-999.0,93,0.00,,,0.00,WSDL version 420,2013-08-23 08:08:00,
2013-08-23 04:13:00,64.1,62.2,27.14,North,-999,-999.0,-999.0,93,0.00,,,0.00,WSDL version 420,2013-08-23 08:13:00,
2013-08-23 04:18:00,64.3,62.4,27.14,North,-999,-999.0,-999.0,93,0.00,,,0.00,WSDL version 420,2013-08-23 08:18:00,
2013-08-23 04:23:00,64.3,62.4,27.14,North,-999,-999.0,-999.0,93,0.00,,,0.00,WSDL version 420,2013-08-23 08:23:00,
2013-08-23 04:28:00,64.3,62.4,27.14,North,-999,-999.0,-999.0,93,0.00,,,0.00,WSDL version 420,2013-08-23 08:28:00,
2013-08-23 04:33:00,64.4,62.5,27.14,North,-999,-999.0,-999.0,93,0.00,,,0.00,WSDL version 420,2013-08-23 08:33:00,
2013-08-23 04:38:00,64.5,62.5,27.14,North,-999,-999.0,-999.0,93,0.00,,,0.00,WSDL version 420,2013-08-23 08:38:00,
2013-08-23 04:43:00,64.5,62.7,27.14,North,-999,-999.0,-999.0,94,0.00,,,0.00,WSDL version 420,2013-08-23 08:43:00,
2013-08-23 04:48:00,64.5,62.8,27.14,North,-999,-999.0,-999.0,93,0.00,,,0.00,WSDL version 420,2013-08-23 08:48:00,
2013-08-23 04:53:00,64.4,62.6,27.14,North,-999,-999.0,-999.0,94,0.00,,,0.00,WSDL version 420,2013-08-23 08:53:00,
2013-08-23 04:58:00,64.3,62.6,27.14,North,-999,-999.0,-999.0,93,0.00,,,0.00,WSDL version 420,2013-08-23 08:58:00,
2013-08-23 05:03:00,64.3,62.4,27.14,North,-999,-999.0,-999.0,93,0.00,,,0.00,WSDL version 420,2013-08-23 09:03:00,
2013-08-23 05:08:00,64.2,62.2,27.14,North,-999,-999.0,-999.0,93,0.00,,,0.00,WSDL version 420,2013-08-23 09:08:00,
2013-08-23 05:13:00,64.1,62.1,27.17,North,-999,-999.0,-999.0,93,0.00,,,0.00,WSDL version 420,2013-08-23 09:13:00,
2013-08-23 05:18:00,64.0,62.0,27.17,North,-999,-999.0,-999.0,93,0.00,,,0.00,WSDL version 420,2013-08-23 09:18:00,
2013-08-23 05:23:00,64.0,62.0,27.17,North,-999,-999.0,-999.0,93,0.00,,,0.00,WSDL version 420,2013-08-23 09:23:00,
2013-08-23 05:28:00,63.9,61.9,27.17,North,-999,-999.0,-999.0,93,0.00,,,0.00,WSDL version 420,2013-08-23 09:28:00,
2013-08-23 05:33:00,63.8,61.8,27.17,North,-999,-999.0,-999.0,93,0.00,,,0.00,WSDL version 420,2013-08-23 09:33:00,
2013-08-23 05:38:00,63.7,61.8,27.17,North,-999,-999.0,-999.0,93,0.00,,,0.00,WSDL version 420,2013-08-23 09:38:00,
2013-08-23 05:43:00,63.6,61.6,27.17,North,-999,-999.0,-999.0,93,0.00,,,0.00,WSDL version 420,2013-08-23 09:43:00,
2013-08-23 05:48:00,63.6,61.6,27.17,North,-999,-999.0,-999.0,93,0.00,,,0.00,WSDL version 420,2013-08-23 09:48:00,
2013-08-23 05:53:00,63.5,61.6,27.17,North,-999,-999.0,-999.0,93,0.00,,,0.00,WSDL version 420,2013-08-23 09:53:00,
2013-08-23 05:58:00,63.6,61.6,27.17,North,-999,-999.0,-999.0,93,0.00,,,0.00,WSDL version 420,2013-08-23 09:58:00,
2013-08-23 06:03:00,63.7,61.7,27.17,North,-999,-999.0,-999.0,93,0.00,,,0.00,WSDL version 420,2013-08-23 10:03:00,
2013-08-23 06:08:00,63.8,62.0,27.17,North,-999,-999.0,-999.0,94,0.00,,,0.00,WSDL version 420,2013-08-23 10:08:00,
2013-08-23 06:13:00,63.7,62.1,27.17,North,-999,-999.0,-999.0,94,0.00,,,0.00,WSDL version 420,2013-08-23 10:13:00,
2013-08-23 06:18:00,63.8,62.2,27.17,North,-999,-999.0,-999.0,94,0.00,,,0.00,WSDL version 420,2013-08-23 10:18:00,
2013-08-23 06:23:00,63.6,61.9,27.17,North,-999,-999.0,-999.0,93,0.00,,,0.00,WSDL version 420,2013-08-23 10:23:00,
2013-08-23 06:28:00,63.6,61.6,27.17,North,-999,-999.0,-999.0,93,0.00,,,0.00,WSDL version 420,2013-08-23 10:28:00,
2013-08-23 06:33:00,63.6,61.6,27.17,North,-999,-999.0,-999.0,93,0.00,,,0.00,WSDL version 420,2013-08-23 10:33:00,
2013-08-23 06:38:00,63.5,61.5,27.17,North,-999,-999.0,-999.0,93,0.00,,,0.00,WSDL version 420,2013-08-23 10:38:00,
2013-08-23 06:43:00,63.4,61.5,27.17,North,-999,-999.0,-999.0,93,0.00,,,0.00,WSDL version 420,2013-08-23 10:43:00,
2013-08-23 06:48:00,63.4,61.5,27.17,North,-999,-999.0,-999.0,93,0.00,,,0.00,WSDL version 420,2013-08-23 10:48:00,
2013-08-23 06:53:00,63.4,61.5,27.17,North,-999,-999.0,-999.0,93,0.00,,,0.00,WSDL version 420,2013-08-23 10:53:00,
2013-08-23 06:58:00,63.4,61.5,27.17,North,-999,-999.0,-999.0,94,0.00,,,0.00,WSDL version 420,2013-08-23 10:58:00,
2013-08-23 07:03:00,63.4,61.8,27.17,North,-999,-999.0,-999.0,94,0.00,,,0.00,WSDL version 420,2013-08-23 11:03:00,
2013-08-23 07:08:00,63.4,61.8,27.17,North,-999,-999.0,-999.0,94,0.00,,,0.00,WSDL version 420,2013-08-23 11:08:00,
2013-08-23 07:13:00,63.4,61.8,27.17,North,-999,-999.0,-999.0,94,0.00,,,0.00,WSDL version 420,2013-08-23 11:13:00,
2013-08-23 07:18:00,63.5,61.9,27.17,North,-999,-999.0,-999.0,94,0.00,,,0.00,WSDL version 420,2013-08-23 11:18:00,
2013-08-23 07:23:00,63.6,62.0,27.17,North,-999,-999.0,-999.0,94,0.00,,,0.00,WSDL version 420,2013-08-23 11:23:00,
2013-08-23 07:28:00,63.6,62.0,27.17,North,-999,-999.0,-999.0,94,0.00,,,0.00,WSDL version 420,2013-08-23 11:28:00,
2013-08-23 07:33:00,63.6,62.0,27.17,North,-999,-999.0,-999.0,94,0.00,,,0.00,WSDL version 420,2013-08-23 11:33:00,
2013-08-23 07:38:00,63.8,62.2,27.17,North,-999,-999.0,-999.0,94,0.00,,,0.00,WSDL version 420,2013-08-23 11:38:00,
2013-08-23 07:43:00,63.8,62.2,27.17,North,-999,-999.0,-999.0,94,0.00,,,0.00,WSDL version 420,2013-08-23 11:43:00,
2013-08-23 07:48:00,63.8,62.2,27.17,North,-999,-999.0,-999.0,94,0.00,,,0.00,WSDL version 420,2013-08-23 11:48:00,
2013-08-23 07:53:00,64.0,62.3,27.17,North,-999,-999.0,-999.0,94,0.00,,,0.00,WSDL version 420,2013-08-23 11:53:00,
2013-08-23 07:58:00,64.0,62.3,27.17,North,-999,-999.0,-999.0,94,0.00,,,0.00,WSDL version 420,2013-08-23 11:58:00,
2013-08-23 08:03:00,64.2,62.9,27.17,North,-999,-999.0,-999.0,96,0.00,,,0.00,WSDL version 420,2013-08-23 12:03:00,
2013-08-23 08:08:00,64.4,63.0,27.17,North,-999,-999.0,-999.0,94,0.00,,,0.00,WSDL version 420,2013-08-23 12:08:00,
2013-08-23 08:13:00,64.5,63.2,27.20,North,-999,-999.0,-999.0,96,0.00,,,0.00,WSDL version 420,2013-08-23 12:13:00,
2013-08-23 08:18:00,64.8,63.5,27.20,North,-999,-999.0,-999.0,96,0.00,,,0.00,WSDL version 420,2013-08-23 12:18:00,
2013-08-23 08:23:00,65.0,63.7,27.20,North,-999,-999.0,-999.0,96,0.00,,,0.00,WSDL version 420,2013-08-23 12:23:00,
2013-08-23 08:28:00,65.3,64.0,27.20,North,-999,-999.0,-999.0,96,0.00,,,0.00,WSDL version 420,2013-08-23 12:28:00,
2013-08-23 08:33:00,65.5,64.2,27.20,North,-999,-999.0,-999.0,96,0.00,,,0.00,WSDL version 420,2013-08-23 12:33:00,
2013-08-23 08:38:00,65.7,64.4,27.20,North,-999,-999.0,-999.0,96,0.00,,,0.00,WSDL version 420,2013-08-23 12:38:00,
2013-08-23 08:43:00,65.9,64.6,27.20,North,-999,-999.0,-999.0,96,0.00,,,0.00,WSDL version 420,2013-08-23 12:43:00,
2013-08-23 08:48:00,66.2,64.9,27.20,North,-999,-999.0,-999.0,96,0.00,,,0.00,WSDL version 420,2013-08-23 12:48:00,
2013-08-23 08:53:00,66.5,65.2,27.20,North,-999,-999.0,-999.0,96,0.00,,,0.00,WSDL version 420,2013-08-23 12:53:00,
2013-08-23 08:58:00,66.8,65.5,27.20,North,-999,-999.0,-999.0,96,0.00,,,0.00,WSDL version 420,2013-08-23 12:58:00,
2013-08-23 09:03:00,67.1,65.7,27.20,North,-999,-999.0,-999.0,96,0.00,,,0.00,WSDL version 420,2013-08-23 13:03:00,
2013-08-23 09:08:00,67.3,66.0,27.20,North,-999,-999.0,-999.0,96,0.00,,,0.00,WSDL version 420,2013-08-23 13:08:00,
2013-08-23 09:13:00,67.6,66.1,27.20,North,-999,-999.0,-999.0,94,0.00,,,0.00,WSDL version 420,2013-08-23 13:13:00,
2013-08-23 09:18:00,68.0,66.3,27.20,North,-999,-999.0,-999.0,94,0.00,,,0.00,WSDL version 420,2013-08-23 13:18:00,
2013-08-23 09:23:00,68.3,66.5,27.20,North,-999,-999.0,-999.0,93,0.00,,,0.00,WSDL version 420,2013-08-23 13:23:00,
2013-08-23 09:28:00,68.7,66.7,27.20,North,-999,-999.0,-999.0,93,0.00,,,0.00,WSDL version 420,2013-08-23 13:28:00,
2013-08-23 09:33:00,69.1,67.0,27.20,North,-999,-999.0,-999.0,92,0.00,,,0.00,WSDL version 420,2013-08-23 13:33:00,
2013-08-23 09:38:00,69.4,66.9,27.20,North,-999,-999.0,-999.0,91,0.00,,,0.00,WSDL version 420,2013-08-23 13:38:00,
2013-08-23 09:43:00,69.6,66.7,27.20,North,-999,-999.0,-999.0,90,0.00,,,0.00,WSDL version 420,2013-08-23 13:43:00,
2013-08-23 09:48:00,69.9,66.7,27.20,North,-999,-999.0,-999.0,89,0.00,,,0.00,WSDL version 420,2013-08-23 13:48:00,
2013-08-23 09:53:00,70.2,66.5,27.20,North,-999,-999.0,-999.0,88,0.00,,,0.00,WSDL version 420,2013-08-23 13:53:00,
2013-08-23 09:58:00,70.4,66.6,27.20,North,-999,-999.0,-999.0,88,0.00,,,0.00,WSDL version 420,2013-08-23 13:58:00,
2013-08-23 10:03:00,70.7,66.7,27.20,North,-999,-999.0,-999.0,87,0.00,,,0.00,WSDL version 420,2013-08-23 14:03:00,
2013-08-23 10:08:00,70.9,66.6,27.20,North,-999,-999.0,-999.0,86,0.00,,,0.00,WSDL version 420,2013-08-23 14:08:00,
2013-08-23 10:13:00,71.2,66.6,27.20,North,-999,-999.0,-999.0,84,0.00,,,0.00,WSDL version 420,2013-08-23 14:13:00,
2013-08-23 10:18:00,71.5,66.3,27.20,North,-999,-999.0,-999.0,82,0.00,,,0.00,WSDL version 420,2013-08-23 14:18:00,
2013-08-23 10:23:00,71.6,65.8,27.20,North,-999,-999.0,-999.0,81,0.00,,,0.00,WSDL version 420,2013-08-23 14:23:00,
2013-08-23 10:28:00,71.7,65.6,27.20,North,-999,-999.0,-999.0,81,0.00,,,0.00,WSDL version 420,2013-08-23 14:28:00,
2013-08-23 10:33:00,71.9,65.8,27.20,North,-999,-999.0,-999.0,81,0.00,,,0.00,WSDL version 420,2013-08-23 14:33:00,
2013-08-23 10:38:00,72.2,66.0,27.20,North,-999,-999.0,-999.0,80,0.00,,,0.00,WSDL version 420,2013-08-23 14:38:00,
2013-08-23 10:43:00,72.4,65.9,27.20,North,-999,-999.0,-999.0,80,0.00,,,0.00,WSDL version 420,2013-08-23 14:43:00,
2013-08-23 10:48:00,72.7,66.2,27.20,North,-999,-999.0,-999.0,80,0.00,,,0.00,WSDL version 420,2013-08-23 14:48:00,
2013-08-23 10:53:00,73.1,66.4,27.20,North,-999,-999.0,-999.0,79,0.00,,,0.00,WSDL version 420,2013-08-23 14:53:00,
2013-08-23 10:58:00,73.3,66.3,27.20,North,-999,-999.0,-999.0,78,0.00,,,0.00,WSDL version 420,2013-08-23 14:58:00,
2013-08-23 11:03:00,73.8,66.4,27.20,North,-999,-999.0,-999.0,77,0.00,,,0.00,WSDL version 420,2013-08-23 15:03:00,
2013-08-23 11:08:00,74.2,65.6,27.20,North,-999,-999.0,-999.0,74,0.00,,,0.00,WSDL version 420,2013-08-23 15:08:00,
2013-08-23 11:13:00,74.3,65.4,27.20,North,-999,-999.0,-999.0,72,0.00,,,0.00,WSDL version 420,2013-08-23 15:13:00,
2013-08-23 11:18:00,74.5,64.8,27.20,North,-999,-999.0,-999.0,73,0.00,,,0.00,WSDL version 420,2013-08-23 15:18:00,
2013-08-23 11:23:00,74.6,64.7,27.20,North,-999,-999.0,-999.0,71,0.00,,,0.00,WSDL version 420,2013-08-23 15:23:00,
2013-08-23 11:28:00,74.9,64.9,27.20,North,-999,-999.0,-999.0,71,0.00,,,0.00,WSDL version 420,2013-08-23 15:28:00,
2013-08-23 11:33:00,75.0,64.6,27.20,North,-999,-999.0,-999.0,70,0.00,,,0.00,WSDL version 420,2013-08-23 15:33:00,
2013-08-23 11:38:00,75.5,65.1,27.20,North,-999,-999.0,-999.0,70,0.00,,,0.00,WSDL version 420,2013-08-23 15:38:00,
2013-08-23 11:43:00,75.2,64.2,27.20,North,-999,-999.0,-999.0,69,0.00,,,0.00,WSDL version 420,2013-08-23 15:43:00,
2013-08-23 11:48:00,75.1,64.1,27.20,North,-999,-999.0,-999.0,69,0.00,,,0.00,WSDL version 420,2013-08-23 15:48:00,
2013-08-23 11:53:00,75.5,64.1,27.20,North,-999,-999.0,-999.0,67,0.00,,,0.00,WSDL version 420,2013-08-23 15:53:00,
2013-08-23 11:58:00,76.1,64.3,27.20,North,-999,-999.0,-999.0,67,0.00,,,0.00,WSDL version 420,2013-08-23 15:58:00,
2013-08-23 12:03:00,76.6,64.9,27.20,North,-999,-999.0,-999.0,66,0.00,,,0.00,WSDL version 420,2013-08-23 16:03:00,
2013-08-23 12:08:00,76.7,64.1,27.20,North,-999,-999.0,-999.0,66,0.00,,,0.00,WSDL version 420,2013-08-23 16:08:00,
2013-08-23 12:13:00,76.7,63.9,27.20,North,-999,-999.0,-999.0,65,0.00,,,0.00,WSDL version 420,2013-08-23 16:13:00,
2013-08-23 12:18:00,76.4,63.7,27.20,North,-999,-999.0,-999.0,65,0.00,,,0.00,WSDL version 420,2013-08-23 16:18:00,
2013-08-23 12:23:00,77.1,64.3,27.20,North,-999,-999.0,-999.0,64,0.00,,,0.00,WSDL version 420,2013-08-23 16:23:00,
2013-08-23 12:28:00,77.1,64.1,27.20,North,-999,-999.0,-999.0,65,0.00,,,0.00,WSDL version 420,2013-08-23 16:28:00,
2013-08-23 12:33:00,77.7,64.4,27.20,North,-999,-999.0,-999.0,65,0.00,,,0.00,WSDL version 420,2013-08-23 16:33:00,
2013-08-23 12:38:00,78.7,64.9,27.20,North,-999,-999.0,-999.0,61,0.00,,,0.00,WSDL version 420,2013-08-23 16:38:00,
2013-08-23 12:43:00,79.0,64.3,27.20,North,-999,-999.0,-999.0,61,0.00,,,0.00,WSDL version 420,2013-08-23 16:43:00,
2013-08-23 12:48:00,79.4,64.3,27.20,North,-999,-999.0,-999.0,60,0.00,,,0.00,WSDL version 420,2013-08-23 16:48:00,
2013-08-23 12:53:00,80.0,64.7,27.20,North,-999,-999.0,-999.0,59,0.00,,,0.00,WSDL version 420,2013-08-23 16:53:00,
2013-08-23 12:58:00,80.1,62.7,27.20,North,-999,-999.0,-999.0,54,0.00,,,0.00,WSDL version 420,2013-08-23 16:58:00,
2013-08-23 13:03:00,80.0,62.4,27.20,North,-999,-999.0,-999.0,53,0.00,,,0.00,WSDL version 420,2013-08-23 17:03:00,
2013-08-23 13:08:00,79.8,60.7,27.20,North,-999,-999.0,-999.0,54,0.00,,,0.00,WSDL version 420,2013-08-23 17:08:00,
2013-08-23 13:13:00,79.6,61.4,27.20,North,-999,-999.0,-999.0,54,0.00,,,0.00,WSDL version 420,2013-08-23 17:13:00,
2013-08-23 13:18:00,79.8,62.5,27.20,North,-999,-999.0,-999.0,57,0.00,,,0.00,WSDL version 420,2013-08-23 17:18:00,
2013-08-23 13:23:00,80.3,62.9,27.20,North,-999,-999.0,-999.0,55,0.00,,,0.00,WSDL version 420,2013-08-23 17:23:00,
2013-08-23 13:28:00,80.8,62.7,27.17,North,-999,-999.0,-999.0,53,0.00,,,0.00,WSDL version 420,2013-08-23 17:28:00,
2013-08-23 13:33:00,81.0,61.1,27.17,North,-999,-999.0,-999.0,49,0.00,,,0.00,WSDL version 420,2013-08-23 17:33:00,
2013-08-23 13:38:00,81.0,60.4,27.17,North,-999,-999.0,-999.0,50,0.00,,,0.00,WSDL version 420,2013-08-23 17:38:00,
2013-08-23 13:43:00,81.2,60.2,27.17,North,-999,-999.0,-999.0,49,0.00,,,0.00,WSDL version 420,2013-08-23 17:43:00,
2013-08-23 13:48:00,80.6,59.8,27.17,North,-999,-999.0,-999.0,51,0.00,,,0.00,WSDL version 420,2013-08-23 17:48:00,
2013-08-23 13:53:00,80.1,59.8,27.17,North,-999,-999.0,-999.0,51,0.00,,,0.00,WSDL version 420,2013-08-23 17:53:00,
2013-08-23 13:58:00,79.8,60.9,27.17,North,-999,-999.0,-999.0,52,0.00,,,0.00,WSDL version 420,2013-08-23 17:58:00,
2013-08-23 14:03:00,79.8,61.1,27.17,North,-999,-999.0,-999.0,53,0.00,,,0.00,WSDL version 420,2013-08-23 18:03:00,
2013-08-23 14:08:00,81.0,62.5,27.17,North,-999,-999.0,-999.0,53,0.00,,,0.00,WSDL version 420,2013-08-23 18:08:00,
2013-08-23 14:13:00,82.2,63.6,27.17,North,-999,-999.0,-999.0,52,0.00,,,0.00,WSDL version 420,2013-08-23 18:13:00,
2013-08-23 14:18:00,81.8,61.7,27.17,North,-999,-999.0,-999.0,51,0.00,,,0.00,WSDL version 420,2013-08-23 18:18:00,
2013-08-23 14:23:00,81.5,61.8,27.17,North,-999,-999.0,-999.0,51,0.00,,,0.00,WSDL version 420,2013-08-23 18:23:00,
2013-08-23 14:28:00,81.8,61.4,27.17,North,-999,-999.0,-999.0,49,0.00,,,0.00,WSDL version 420,2013-08-23 18:28:00,
2013-08-23 14:33:00,81.3,60.2,27.17,North,-999,-999.0,-999.0,49,0.00,,,0.00,WSDL version 420,2013-08-23 18:33:00,
2013-08-23 14:38:00,80.9,59.9,27.17,North,-999,-999.0,-999.0,50,0.00,,,0.00,WSDL version 420,2013-08-23 18:38:00,
2013-08-23 14:43:00,81.6,61.9,27.17,North,-999,-999.0,-999.0,53,0.00,,,0.00,WSDL version 420,2013-08-23 18:43:00,
2013-08-23 14:48:00,82.1,62.4,27.17,North,-999,-999.0,-999.0,51,0.00,,,0.00,WSDL version 420,2013-08-23 18:48:00,
2013-08-23 14:53:00,82.3,61.9,27.17,North,-999,-999.0,-999.0,49,0.00,,,0.00,WSDL version 420,2013-08-23 18:53:00,
2013-08-23 14:58:00,81.9,60.4,27.17,North,-999,-999.0,-999.0,47,0.00,,,0.00,WSDL version 420,2013-08-23 18:58:00,
2013-08-23 15:03:00,80.9,59.9,27.17,North,-999,-999.0,-999.0,50,0.00,,,0.00,WSDL version 420,2013-08-23 19:03:00,
2013-08-23 15:08:00,80.3,60.4,27.17,North,-999,-999.0,-999.0,52,0.00,,,0.00,WSDL version 420,2013-08-23 19:08:00,
2013-08-23 15:13:00,81.0,62.6,27.17,North,-999,-999.0,-999.0,54,0.00,,,0.00,WSDL version 420,2013-08-23 19:13:00,
2013-08-23 15:18:00,81.8,62.9,27.17,North,-999,-999.0,-999.0,52,0.00,,,0.00,WSDL version 420,2013-08-23 19:18:00,
2013-08-23 15:23:00,81.7,62.3,27.17,North,-999,-999.0,-999.0,52,0.00,,,0.00,WSDL version 420,2013-08-23 19:23:00,
2013-08-23 15:28:00,81.2,62.8,27.14,North,-999,-999.0,-999.0,54,0.00,,,0.00,WSDL version 420,2013-08-23 19:28:00,
2013-08-23 15:33:00,80.6,60.9,27.14,North,-999,-999.0,-999.0,51,0.00,,,0.00,WSDL version 420,2013-08-23 19:33:00,
2013-08-23 15:38:00,80.9,61.6,27.14,North,-999,-999.0,-999.0,52,0.00,,,0.00,WSDL version 420,2013-08-23 19:38:00,
2013-08-23 15:43:00,81.7,62.4,27.14,North,-999,-999.0,-999.0,51,0.00,,,0.00,WSDL version 420,2013-08-23 19:43:00,
2013-08-23 15:48:00,82.1,62.7,27.14,North,-999,-999.0,-999.0,52,0.00,,,0.00,WSDL version 420,2013-08-23 19:48:00,
2013-08-23 15:53:00,82.7,63.0,27.14,North,-999,-999.0,-999.0,50,0.00,,,0.00,WSDL version 420,2013-08-23 19:53:00,
2013-08-23 15:58:00,82.2,61.6,27.14,North,-999,-999.0,-999.0,49,0.00,,,0.00,WSDL version 420,2013-08-23 19:58:00,
2013-08-23 16:03:00,81.2,60.4,27.14,North,-999,-999.0,-999.0,49,0.00,,,0.00,WSDL version 420,2013-08-23 20:03:00,
2013-08-23 16:08:00,80.6,60.0,27.14,North,-999,-999.0,-999.0,49,0.00,,,0.00,WSDL version 420,2013-08-23 20:08:00,
2013-08-23 16:13:00,80.2,59.8,27.17,North,-999,-999.0,-999.0,51,0.00,,,0.00,WSDL version 420,2013-08-23 20:13:00,
2013-08-23 16:18:00,80.6,60.4,27.17,North,-999,-999.0,-999.0,50,0.00,,,0.00,WSDL version 420,2013-08-23 20:18:00,
2013-08-23 16:23:00,80.7,60.2,27.17,North,-999,-999.0,-999.0,50,0.00,,,0.00,WSDL version 420,2013-08-23 20:23:00,
2013-08-23 16:28:00,80.3,61.1,27.17,North,-999,-999.0,-999.0,53,0.00,,,0.00,WSDL version 420,2013-08-23 20:28:00,
2013-08-23 16:33:00,80.2,61.1,27.17,North,-999,-999.0,-999.0,52,0.00,,,0.00,WSDL version 420,2013-08-23 20:33:00,
2013-08-23 16:38:00,79.5,60.5,27.17,North,-999,-999.0,-999.0,53,0.00,,,0.00,WSDL version 420,2013-08-23 20:38:00,
2013-08-23 16:43:00,78.7,60.5,27.14,North,-999,-999.0,-999.0,55,0.00,,,0.00,WSDL version 420,2013-08-23 20:43:00,
2013-08-23 16:48:00,78.6,61.0,27.14,North,-999,-999.0,-999.0,55,0.00,,,0.00,WSDL version 420,2013-08-23 20:48:00,
2013-08-23 16:53:00,78.5,61.4,27.14,North,-999,-999.0,-999.0,57,0.00,,,0.00,WSDL version 420,2013-08-23 20:53:00,
2013-08-23 16:58:00,78.1,61.4,27.14,North,-999,-999.0,-999.0,57,0.00,,,0.00,WSDL version 420,2013-08-23 20:58:00,
2013-08-23 17:03:00,78.0,61.8,27.14,North,-999,-999.0,-999.0,57,0.00,,,0.00,WSDL version 420,2013-08-23 21:03:00,
2013-08-23 17:08:00,78.3,61.5,27.14,North,-999,-999.0,-999.0,56,0.00,,,0.00,WSDL version 420,2013-08-23 21:08:00,
2013-08-23 17:13:00,78.8,61.6,27.17,North,-999,-999.0,-999.0,55,0.00,,,0.00,WSDL version 420,2013-08-23 21:13:00,
2013-08-23 17:18:00,78.9,60.4,27.17,North,-999,-999.0,-999.0,53,0.00,,,0.00,WSDL version 420,2013-08-23 21:18:00,
2013-08-23 17:23:00,78.7,60.2,27.17,North,-999,-999.0,-999.0,53,0.00,,,0.00,WSDL version 420,2013-08-23 21:23:00,
2013-08-23 17:28:00,77.9,59.2,27.17,North,-999,-999.0,-999.0,53,0.00,,,0.00,WSDL version 420,2013-08-23 21:28:00,
2013-08-23 17:33:00,77.0,59.3,27.17,North,-999,-999.0,-999.0,56,0.00,,,0.00,WSDL version 420,2013-08-23 21:33:00,
2013-08-23 17:38:00,76.4,59.5,27.17,North,-999,-999.0,-999.0,56,0.00,,,0.00,WSDL version 420,2013-08-23 21:38:00,
2013-08-23 17:43:00,76.0,59.7,27.17,North,-999,-999.0,-999.0,58,0.00,,,0.00,WSDL version 420,2013-08-23 21:43:00,
2013-08-23 17:48:00,75.4,60.4,27.17,North,-999,-999.0,-999.0,61,0.00,,,0.00,WSDL version 420,2013-08-23 21:48:00,
2013-08-23 17:53:00,75.3,60.7,27.17,North,-999,-999.0,-999.0,61,0.00,,,0.00,WSDL version 420,2013-08-23 21:53:00,
2013-08-23 17:58:00,75.3,61.4,27.17,North,-999,-999.0,-999.0,63,0.00,,,0.00,WSDL version 420,2013-08-23 21:58:00,
2013-08-23 18:03:00,75.1,62.0,27.17,North,-999,-999.0,-999.0,64,0.00,,,0.00,WSDL version 420,2013-08-23 22:03:00,
2013-08-23 18:08:00,74.8,61.9,27.17,North,-999,-999.0,-999.0,65,0.00,,,0.00,WSDL version 420,2013-08-23 22:08:00,
2013-08-23 18:13:00,74.6,62.5,27.14,North,-999,-999.0,-999.0,66,0.00,,,0.00,WSDL version 420,2013-08-23 22:13:00,
2013-08-23 18:18:00,74.8,62.8,27.14,North,-999,-999.0,-999.0,67,0.00,,,0.00,WSDL version 420,2013-08-23 22:18:00,
2013-08-23 18:23:00,74.9,63.0,27.14,North,-999,-999.0,-999.0,66,0.00,,,0.00,WSDL version 420,2013-08-23 22:23:00,
2013-08-23 18:28:00,75.1,63.5,27.14,North,-999,-999.0,-999.0,67,0.00,,,0.00,WSDL version 420,2013-08-23 22:28:00,
2013-08-23 18:33:00,75.1,63.4,27.14,North,-999,-999.0,-999.0,67,0.00,,,0.00,WSDL version 420,2013-08-23 22:33:00,
2013-08-23 18:38:00,75.1,63.2,27.14,North,-999,-999.0,-999.0,66,0.00,,,0.00,WSDL version 420,2013-08-23 22:38:00,
2013-08-23 18:43:00,74.9,62.8,27.17,North,-999,-999.0,-999.0,66,0.00,,,0.00,WSDL version 420,2013-08-23 22:43:00,
2013-08-23 18:48:00,74.6,62.5,27.17,North,-999,-999.0,-999.0,66,0.00,,,0.00,WSDL version 420,2013-08-23 22:48:00,
2013-08-23 18:53:00,74.0,62.4,27.17,North,-999,-999.0,-999.0,67,0.00,,,0.00,WSDL version 420,2013-08-23 22:53:00,
2013-08-23 18:58:00,73.6,62.4,27.17,North,-999,-999.0,-999.0,68,0.00,,,0.00,WSDL version 420,2013-08-23 22:58:00,
2013-08-23 19:03:00,73.4,62.5,27.17,North,-999,-999.0,-999.0,69,0.00,,,0.00,WSDL version 420,2013-08-23 23:03:00,
2013-08-23 19:08:00,73.2,62.6,27.17,North,-999,-999.0,-999.0,70,0.00,,,0.00,WSDL version 420,2013-08-23 23:08:00,
2013-08-23 19:13:00,72.9,62.5,27.17,North,-999,-999.0,-999.0,70,0.00,,,0.00,WSDL version 420,2013-08-23 23:13:00,
2013-08-23 19:18:00,72.7,62.7,27.17,North,-999,-999.0,-999.0,71,0.00,,,0.00,WSDL version 420,2013-08-23 23:18:00,
2013-08-23 19:23:00,72.5,63.0,27.17,North,-999,-999.0,-999.0,73,0.00,,,0.00,WSDL version 420,2013-08-23 23:23:00,
2013-08-23 19:28:00,72.4,63.3,27.17,North,-999,-999.0,-999.0,73,0.00,,,0.00,WSDL version 420,2013-08-23 23:28:00,
2013-08-23 19:33:00,72.3,63.2,27.17,North,-999,-999.0,-999.0,73,0.00,,,0.00,WSDL version 420,2013-08-23 23:33:00,
2013-08-23 19:38:00,72.1,62.7,27.17,North,-999,-999.0,-999.0,72,0.00,,,0.00,WSDL version 420,2013-08-23 23:38:00,
2013-08-23 19:43:00,71.9,62.0,27.17,North,-999,-999.0,-999.0,71,0.00,,,0.00,WSDL version 420,2013-08-23 23:43:00,
2013-08-23 19:48:00,71.9,62.3,27.17,North,-999,-999.0,-999.0,72,0.00,,,0.00,WSDL version 420,2013-08-23 23:48:00,
2013-08-23 19:53:00,71.9,62.5,27.17,North,-999,-999.0,-999.0,73,0.00,,,0.00,WSDL version 420,2013-08-23 23:53:00,
2013-08-23 19:58:00,71.6,62.7,27.17,North,-999,-999.0,-999.0,74,0.00,,,0.00,WSDL version 420,2013-08-23 23:58:00,
2013-08-23 20:03:00,71.4,62.7,27.17,North,-999,-999.0,-999.0,74,0.00,,,0.00,WSDL version 420,2013-08-24 00:03:00,
2013-08-23 20:08:00,71.1,62.4,27.17,North,-999,-999.0,-999.0,74,0.00,,,0.00,WSDL version 420,2013-08-24 00:08:00,
2013-08-23 20:13:00,70.9,62.2,27.17,North,-999,-999.0,-999.0,74,0.00,,,0.00,WSDL version 420,2013-08-24 00:13:00,
2013-08-23 20:18:00,70.5,62.1,27.17,North,-999,-999.0,-999.0,75,0.00,,,0.00,WSDL version 420,2013-08-24 00:18:00,
2013-08-23 20:23:00,70.4,62.1,27.17,North,-999,-999.0,-999.0,75,0.00,,,0.00,WSDL version 420,2013-08-24 00:23:00,
2013-08-23 20:28:00,70.1,62.2,27.20,North,-999,-999.0,-999.0,76,0.00,,,0.00,WSDL version 420,2013-08-24 00:28:00,
2013-08-23 20:33:00,69.9,62.2,27.20,North,-999,-999.0,-999.0,77,0.00,,,0.00,WSDL version 420,2013-08-24 00:33:00,
2013-08-23 20:38:00,69.9,62.4,27.20,North,-999,-999.0,-999.0,77,0.00,,,0.00,WSDL version 420,2013-08-24 00:38:00,
2013-08-23 20:43:00,69.7,62.6,27.17,North,-999,-999.0,-999.0,78,0.00,,,0.00,WSDL version 420,2013-08-24 00:43:00,
2013-08-23 20:48:00,69.5,62.4,27.17,North,-999,-999.0,-999.0,78,0.00,,,0.00,WSDL version 420,2013-08-24 00:48:00,
2013-08-23 20:53:00,69.4,62.2,27.17,North,-999,-999.0,-999.0,78,0.00,,,0.00,WSDL version 420,2013-08-24 00:53:00,
2013-08-23 20:58:00,69.4,62.3,27.20,North,-999,-999.0,-999.0,79,0.00,,,0.00,WSDL version 420,2013-08-24 00:58:00,
2013-08-23 21:03:00,69.4,62.6,27.20,North,-999,-999.0,-999.0,79,0.00,,,0.00,WSDL version 420,2013-08-24 01:03:00,
2013-08-23 21:08:00,69.4,62.6,27.20,North,-999,-999.0,-999.0,79,0.00,,,0.00,WSDL version 420,2013-08-24 01:08:00,
2013-08-23 21:13:00,69.2,62.6,27.20,North,-999,-999.0,-999.0,80,0.00,,,0.00,WSDL version 420,2013-08-24 01:13:00,
2013-08-23 21:18:00,69.1,62.5,27.20,North,-999,-999.0,-999.0,79,0.00,,,0.00,WSDL version 420,2013-08-24 01:18:00,
2013-08-23 21:23:00,68.9,62.3,27.20,North,-999,-999.0,-999.0,80,0.00,,,0.00,WSDL version 420,2013-08-24 01:23:00,
2013-08-23 21:28:00,68.8,62.4,27.20,North,-999,-999.0,-999.0,80,0.00,,,0.00,WSDL version 420,2013-08-24 01:28:00,
2013-08-23 21:33:00,68.7,62.3,27.20,North,-999,-999.0,-999.0,80,0.00,,,0.00,WSDL version 420,2013-08-24 01:33:00,
2013-08-23 21:38:00,68.6,62.2,27.20,North,-999,-999.0,-999.0,80,0.00,,,0.00,WSDL version 420,2013-08-24 01:38:00,
2013-08-23 21:43:00,68.5,62.1,27.20,North,-999,-999.0,-999.0,80,0.00,,,0.00,WSDL version 420,2013-08-24 01:43:00,
2013-08-23 21:48:00,68.3,61.9,27.20,North,-999,-999.0,-999.0,80,0.00,,,0.00,WSDL version 420,2013-08-24 01:48:00,
2013-08-23 21:53:00,68.2,61.8,27.20,North,-999,-999.0,-999.0,80,0.00,,,0.00,WSDL version 420,2013-08-24 01:53:00,
2013-08-23 21:58:00,68.0,61.8,27.20,North,-999,-999.0,-999.0,81,0.00,,,0.00,WSDL version 420,2013-08-24 01:58:00,
2013-08-23 22:03:00,67.8,61.8,27.20,North,-999,-999.0,-999.0,81,0.00,,,0.00,WSDL version 420,2013-08-24 02:03:00,
2013-08-23 22:08:00,67.6,61.6,27.20,North,-999,-999.0,-999.0,81,0.00,,,0.00,WSDL version 420,2013-08-24 02:08:00,
2013-08-23 22:13:00,67.5,61.5,27.20,North,-999,-999.0,-999.0,81,0.00,,,0.00,WSDL version 420,2013-08-24 02:13:00,
2013-08-23 22:18:00,67.3,61.2,27.20,North,-999,-999.0,-999.0,80,0.00,,,0.00,WSDL version 420,2013-08-24 02:18:00,
2013-08-23 22:23:00,67.2,61.2,27.20,North,-999,-999.0,-999.0,81,0.00,,,0.00,WSDL version 420,2013-08-24 02:23:00,
2013-08-23 22:28:00,67.0,61.0,27.20,North,-999,-999.0,-999.0,81,0.00,,,0.00,WSDL version 420,2013-08-24 02:28:00,
2013-08-23 22:33:00,66.8,60.7,27.20,North,-999,-999.0,-999.0,80,0.00,,,0.00,WSDL version 420,2013-08-24 02:33:00,
2013-08-23 22:38:00,66.6,60.4,27.20,North,-999,-999.0,-999.0,81,0.00,,,0.00,WSDL version 420,2013-08-24 02:38:00,
2013-08-23 22:43:00,66.4,60.5,27.20,North,-999,-999.0,-999.0,81,0.00,,,0.00,WSDL version 420,2013-08-24 02:43:00,
2013-08-23 22:48:00,66.3,60.3,27.20,North,-999,-999.0,-999.0,81,0.00,,,0.00,WSDL version 420,2013-08-24 02:48:00,
2013-08-23 22:53:00,66.1,60.2,27.20,North,-999,-999.0,-999.0,81,0.00,,,0.00,WSDL version 420,2013-08-24 02:53:00,
2013-08-23 22:58:00,66.0,60.0,27.20,North,-999,-999.0,-999.0,81,0.00,,,0.00,WSDL version 420,2013-08-24 02:58:00,
2013-08-23 23:03:00,65.9,60.0,27.20,North,-999,-999.0,-999.0,81,0.00,,,0.00,WSDL version 420,2013-08-24 03:03:00,
2013-08-23 23:08:00,65.8,60.1,27.20,North,-999,-999.0,-999.0,81,0.00,,,0.00,WSDL version 420,2013-08-24 03:08:00,
2013-08-23 23:13:00,65.7,60.0,27.20,North,-999,-999.0,-999.0,82,0.00,,,0.00,WSDL version 420,2013-08-24 03:13:00,
2013-08-23 23:18:00,65.5,59.6,27.20,North,-999,-999.0,-999.0,81,0.00,,,0.00,WSDL version 420,2013-08-24 03:18:00,
2013-08-23 23:28:00,65.2,59.3,27.20,North,-999,-999.0,-999.0,81,0.00,,,0.00,WSDL version 420,2013-08-24 03:28:00,
2013-08-23 23:33:00,65.0,59.1,27.20,North,-999,-999.0,-999.0,81,0.00,,,0.00,WSDL version 420,2013-08-24 03:33:00,
2013-08-23 23:38:00,64.9,59.0,27.20,North,-999,-999.0,-999.0,82,0.00,,,0.00,WSDL version 420,2013-08-24 03:38:00,
2013-08-23 23:43:00,64.9,59.3,27.23,North,-999,-999.0,-999.0,82,0.00,,,0.00,WSDL version 420,2013-08-24 03:43:00,
2013-08-23 23:48:00,64.7,59.2,27.23,North,-999,-999.0,-999.0,82,0.00,,,0.00,WSDL version 420,2013-08-24 03:48:00,
2013-08-23 23:53:00,64.6,59.0,27.23,North,-999,-999.0,-999.0,82,0.00,,,0.00,WSDL version 420,2013-08-24 03:53:00,
2013-08-23 23:58:00,64.5,59.0,27.20,North,-999,-999.0,-999.0,82,0.00,,,0.00,WSDL version 420,2013-08-24 03:58:00,